CZ-4C R/B, 43278

Orbit data source: Space-Track

CZ-4C R/B, 43278 is space debris in LEO originally from a launch on Tue, 10 Apr 2018 UTC launched from the Jiuquan Satellite Launch Center, China (JSC). Debris objects in space refer to the collection of defunct objects orbiting the Earth. Examples of debris include non-operational satellites, rocket bodies, and fragments generated from explosions, collisions, or faulty payload assembly.

Loading next visibility...
CZ-4C R/B details
Identifier
43278, 2018-034D
Orbit
LEO
Last TLE update13 hours ago
Origin
Flag of CNCNSA (CN / PRC)
ManufacturerSAST
MissionSpacecraft
Bus & MotorCZ-4 STAGE 3, Unknown motor
Mass~1,000 kg wet, ~1,000 kg dry
Launch date (UTC)
2018-04-10 (7 years ago)
Launch vehicleUnknown
Launch site
Jiuquan Satellite Launch Center, China (JSC)
Object type
Payload
Rocket body
Debris
Shape & HBRCyl, 2.9 m
Radar Cross Section7.676 m², Large (>1 m²)

Expand to show TLE details & history

TLE from 13 hours ago
0 CZ-4C R/B
1 43278U 18034D   24361.08716707  .00000069  00000-0  14950-3 0  9999
2 43278  63.4336 230.0403 0332421 359.2014   0.8448 13.60854156333611
Epoch: 2024-12-26T02:05Z
Definitive object data (Epoch: 2024-12-26T02:05:31.234Z)
Latitude0.00003°
Longitude103.58857°
Altitude788.032 km
Speed7.583 km/s
True Right ascension15h 20m 09s
True Declination0° 00' 00"
Sunlit
Object was in daylight at TLE epoch
Visualization TLE readout
Latitude-42.61769°
Longitude-50.65099°
Altitude1,202.184 km
Speed7.176 km/s
Apparent Right ascension04h 04m 04s
Apparent Declination-42° 18' 27"
Sunlit
Object is in daylight
Visualization observer readout
Local Sidereal Time14:56:24
Azimuth253.863° W
Elevation-77.056°
Doppler factor1
Orbital elements
Apogee altitude1,277.712 km
Perigee altitude785.095 km
Semi-major axis7,409.541 km
Eccentricity0.0332421
Inclination63.4336°
RAAN230.0403°
Arg. of periapsis359.2014°
True anomaly0.90339°
Mean anomaly0.8448°
Eccentric anomaly0.87385°
Mean motion3.40296 °/min
BSTAR0.0001495
Orbital period105.79 mins
Loading maneuver chart data...
Loading historical data...
Loading historical data...
Loading historical data...
Loading historical data...
Loading historical data...
Loading historical data...
Loading historical data...

CZ-4C R/B Visibility forecast

Observer location: undefined°, undefined

Span
Click to sort rows by Start time (UTC) header in descending order
Start Az.
Max El. time (UTC)
Max El. Az.
Max El.
End time (UTC)
End Az.
8 mins2024-12-26 16:19:22.747Z161.671° S2024-12-26 16:23:22.747Z106.074° ESE24.231°2024-12-26 16:27:22.747Z58.66° ENE
9 mins2024-12-26 18:08:22.747Z247.041° WSW2024-12-26 18:12:22.747Z325.13° NNW35.338°2024-12-26 18:17:22.747Z23.222° NE
7 mins2024-12-26 23:45:22.747Z4.871° NNE2024-12-26 23:48:22.747Z34.835° NE17.566°2024-12-26 23:52:22.747Z69.801° E
13 mins2024-12-27 01:33:22.747Z335.146° NNW2024-12-27 01:38:22.747Z36.367° NE41.687°2024-12-27 01:46:22.747Z133.717° SE
10 mins2024-12-27 03:23:22.747Z295.351° NW2024-12-27 03:27:22.747Z254.206° W26.098°2024-12-27 03:33:22.747Z196.812° SSW
|